Measurements were made at the meteorological tower in Juelich (50.90 N / 6.40 E) at an altitude of 100 m,
"Instrument: Fast Greenhouse Gas Analyzer (FGGA), Los Gatos Inc.",
Responsible PI: Dr. Marc von Hobe; Forschungszentrum Juelich GmbH; IEK-7; email: m.von.hobe@fz-juelich.de,
NaN or negative numbers are fill values (i.e. no valid measurements were made at that time),
Uncertainties are given as the 1-sigma standard deviation over each 10 minute intervals. In each interval ~600 individual measurements are carried out so that the standard error of the mean is approximately sigma/sqrt(600).,
time_utc,CO2_ppm,stdev_CO2_ppm,CH4_ppm,stdev_CH4_ppm,H2O_ppm,stdev_H2O_ppm
"2016-08-01 00:05:00 000",403.280,0.922105,2.04873,0.00435546,10566.5,95.8237
"2016-08-01 00:15:00 000",402.305,0.882103,2.05123,0.00470541,10595.1,89.3350
"2016-08-01 00:25:00 000",402.069,0.910221,2.04670,0.00673903,10566.1,90.9830
"2016-08-01 00:35:00 000",403.571,1.15109,2.03568,0.00647696,10496.1,90.8607
"2016-08-01 00:45:00 000",405.868,1.99342,2.04894,0.00735682,10474.6,94.9597
"2016-08-01 00:55:00 000",402.915,1.27919,2.04514,0.00513809,10496.9,95.1324
"2016-08-01 01:05:00 000",404.352,1.50478,2.03725,0.00487915,10404.2,88.5804
"2016-08-01 01:15:00 000",405.763,2.06055,2.03493,0.00526275,10418.2,103.101
"2016-08-01 01:25:00 000",406.563,1.83688,2.03020,0.00470568,10329.4,95.5678
"2016-08-01 01:35:00 000",404.818,3.02194,2.02242,0.00668151,10351.3,107.623
"2016-08-01 01:45:00 000",401.940,1.70867,2.01338,0.00477308,10339.9,103.736
"2016-08-01 01:55:00 000",401.753,1.00894,2.01078,0.00452746,10285.1,100.782
"2016-08-01 02:05:00 000",403.499,1.08011,2.00971,0.00453864,10217.0,98.1578
"2016-08-01 02:15:00 000",404.077,1.61354,2.00192,0.00648623,10194.5,107.978
"2016-08-01 02:25:00 000",406.362,1.90903,1.99969,0.00606959,10088.2,105.736
"2016-08-01 02:35:00 000",400.652,2.59157,1.97691,0.00828614,10089.7,95.1097
"2016-08-01 02:45:00 000",397.705,0.977445,1.97086,0.00504455,10051.9,103.985
"2016-08-01 02:55:00 000",399.686,2.25343,1.97264,0.00806391,9897.31,126.224
"2016-08-01 03:05:00 000",403.188,1.12854,1.97623,0.00470370,9858.87,104.954
"2016-08-01 03:15:00 000",407.094,1.99897,1.98150,0.00667745,9923.32,107.421
"2016-08-01 03:25:00 000",407.095,1.08758,1.96452,0.00511737,9965.06,107.672
"2016-08-01 03:35:00 000",406.705,0.810889,1.96216,0.00397106,9861.76,101.366
"2016-08-01 03:45:00 000",407.997,0.972569,1.96426,0.00422250,9885.12,106.515
"2016-08-01 03:55:00 000",409.111,1.14958,1.96707,0.00450572,9932.12,121.081
"2016-08-01 04:05:00 000",407.261,1.54241,1.96855,0.00413420,9942.72,129.990
"2016-08-01 04:15:00 000",406.718,1.25728,1.97010,0.00419939,9843.92,103.881
"2016-08-01 04:25:00 000",405.153,1.10369,1.96471,0.00455763,9828.18,110.401
"2016-08-01 04:35:00 000",407.230,1.40927,1.96284,0.00475654,9982.28,138.284
"2016-08-01 04:45:00 000",408.959,1.28735,1.95794,0.00571020,9883.48,111.422
"2016-08-01 04:55:00 000",407.412,0.910651,1.94902,0.00405011,9729.10,127.531
"2016-08-01 05:05:00 000",407.627,0.992437,1.95181,0.00478785,9818.70,130.168
"2016-08-01 05:15:00 000",408.808,1.62728,1.95302,0.00423622,9948.58,116.793
"2016-08-01 05:25:00 000",407.910,1.27045,1.95078,0.00426405,9971.53,112.596
"2016-08-01 05:35:00 000",408.303,0.938896,1.94738,0.00525452,9985.75,118.974
"2016-08-01 05:45:00 000",408.203,1.49133,1.94411,0.00434883,9839.27,125.871
"2016-08-01 05:55:00 000",405.583,1.19595,1.93991,0.00614785,9727.81,121.169
"2016-08-01 06:05:00 000",405.793,1.27921,1.93963,0.00501671,9817.57,116.196
"2016-08-01 06:15:00 000",406.816,1.77064,1.94425,0.00887563,9845.54,131.587
"2016-08-01 06:25:00 000",407.869,2.31873,1.95605,0.0108795,9995.86,165.848
"2016-08-01 06:35:00 000",406.432,1.59434,1.95464,0.00759563,9937.82,167.004
"2016-08-01 06:45:00 000",408.206,1.29869,1.96991,0.00703858,10172.5,218.631
"2016-08-01 06:55:00 000",405.942,1.59320,1.97450,0.00947534,10250.3,218.953
"2016-08-01 07:05:00 000",405.124,1.92632,1.97561,0.0119736,10296.9,228.462
"2016-08-01 07:15:00 000",407.172,1.12722,1.97480,0.00659215,10569.3,258.695
"2016-08-01 07:25:00 000",406.340,1.57412,1.98166,0.00745004,10848.7,210.996
"2016-08-01 07:35:00 000",400.455,2.96815,1.97439,0.00777829,10535.8,188.007
"2016-08-01 07:45:00 000",397.235,1.45362,1.97148,0.00513151,10596.5,240.023
"2016-08-01 07:55:00 000",396.327,0.999228,1.97582,0.00486378,10977.2,248.894
"2016-08-01 08:05:00 000",395.273,1.29428,1.96092,0.00697266,10830.5,278.683
"2016-08-01 08:15:00 000",393.716,0.949010,1.95630,0.00515635,10573.8,238.805
"2016-08-01 08:25:00 000",392.506,1.04519,1.95388,0.00465157,10653.3,150.976
"2016-08-01 08:35:00 000",391.225,1.32388,1.94296,0.00502130,10205.6,193.677
"2016-08-01 08:45:00 000",390.951,1.06959,1.93901,0.00546048,10070.6,275.384
"2016-08-01 08:55:00 000",389.179,1.20906,1.93647,0.00448085,10147.5,223.050
"2016-08-01 09:05:00 000",388.985,0.821385,1.93668,0.00690030,9750.52,177.180
"2016-08-01 09:15:00 000",388.308,1.11650,1.93428,0.00497595,9904.87,192.758
"2016-08-01 09:25:00 000",387.899,1.07148,1.93564,0.00422405,9995.08,184.624
"2016-08-01 09:35:00 000",388.541,1.06507,1.93771,0.00457927,10037.5,203.309
"2016-08-01 09:45:00 000",389.058,1.04648,1.94056,0.00440278,9681.01,161.501
"2016-08-01 09:55:00 000",387.486,0.946961,1.94250,0.00469222,9943.82,200.114
"2016-08-01 10:05:00 000",388.516,0.879998,1.93224,0.00491732,9809.78,155.417
"2016-08-01 10:15:00 000",387.623,1.13427,1.92993,0.00477875,9846.76,145.600
"2016-08-01 10:25:00 000",385.692,1.53231,1.93110,0.00486036,10066.9,235.805
"2016-08-01 10:35:00 000",386.183,1.20818,1.93616,0.00737014,10026.4,154.296
"2016-08-01 10:45:00 000",386.360,1.03182,1.93396,0.00592665,10029.6,158.842
"2016-08-01 10:55:00 000",386.169,1.31476,1.93525,0.00649518,10039.5,221.408
"2016-08-01 11:05:00 000",386.695,1.42434,1.93710,0.00527216,10055.4,280.959
"2016-08-01 11:15:00 000",387.125,1.43745,1.93535,0.00481983,9962.65,372.855
"2016-08-01 11:25:00 000",386.319,1.22068,1.93526,0.00407126,9951.81,181.598
"2016-08-01 11:35:00 000",386.988,1.42278,1.93454,0.00655129,9647.56,419.755
"2016-08-01 11:45:00 000",387.076,1.00846,1.93325,0.00452657,9664.41,177.013
"2016-08-01 11:55:00 000",387.113,0.894523,1.93273,0.00464076,9607.88,192.249
"2016-08-01 12:05:00 000",385.548,0.954166,1.93653,0.00502831,9828.95,187.276
"2016-08-01 12:15:00 000",385.948,0.997294,1.93158,0.00454783,9533.82,322.706
"2016-08-01 12:25:00 000",387.450,1.02611,1.92783,0.00420238,9135.12,240.535
"2016-08-01 12:35:00 000",388.285,0.937413,1.92398,0.00543058,8739.08,343.727
"2016-08-01 12:45:00 000",389.109,1.03213,1.92493,0.00733588,8461.95,279.514
"2016-08-01 12:55:00 000",388.256,0.939951,1.93191,0.00401590,9157.24,148.719
"2016-08-01 13:05:00 000",387.619,0.929404,1.93547,0.00506644,9281.55,171.703
"2016-08-01 13:15:00 000",387.413,0.963865,1.93917,0.00431485,9552.10,205.464
"2016-08-01 13:25:00 000",387.110,0.965263,1.94222,0.00429218,9875.55,235.474
"2016-08-01 13:35:00 000",387.394,0.968273,1.94471,0.00578368,9968.48,249.832
"2016-08-01 13:45:00 000",385.808,1.17084,1.94378,0.00452135,10434.1,178.701
"2016-08-01 13:55:00 000",385.911,1.25856,1.94117,0.00460117,10455.3,301.026
"2016-08-01 14:05:00 000",386.726,0.843280,1.93834,0.00445374,10086.7,157.514
"2016-08-01 14:15:00 000",386.305,0.866977,1.94250,0.00468081,10081.0,128.046
"2016-08-01 14:25:00 000",386.770,1.08499,1.94139,0.00577383,9852.00,216.549
"2016-08-01 14:35:00 000",387.564,0.897987,1.94444,0.00497868,9796.78,187.597
"2016-08-01 14:45:00 000",386.593,0.778534,1.95084,0.00504120,10128.0,178.948
"2016-08-01 14:55:00 000",387.093,0.976627,1.94669,0.00445822,9987.10,198.432
"2016-08-01 15:05:00 000",387.028,0.992848,1.96172,0.00729270,10035.5,189.414
"2016-08-01 15:15:00 000",386.759,0.874726,1.95156,0.00652986,10074.6,142.367
"2016-08-01 15:25:00 000",387.093,0.809492,1.94793,0.00495119,10132.8,148.341
"2016-08-01 15:35:00 000",386.474,0.970427,1.94174,0.00930934,9916.43,185.740
"2016-08-01 15:45:00 000",384.615,0.884080,1.92965,0.00441081,9784.18,119.667
"2016-08-01 15:55:00 000",385.709,1.13372,1.93021,0.00453448,9685.98,195.329
"2016-08-01 16:05:00 000",385.801,0.978402,1.93603,0.00648106,9653.16,196.788
"2016-08-01 16:15:00 000",385.933,0.860901,1.92944,0.00472290,9784.19,121.757
"2016-08-01 16:25:00 000",385.271,1.07910,1.93163,0.00611296,9803.28,164.707
"2016-08-01 16:35:00 000",385.578,1.04811,1.93168,0.00707310,9725.27,183.561
"2016-08-01 16:45:00 000",386.084,0.897439,1.93997,0.00792081,9813.58,149.306
"2016-08-01 16:55:00 000",386.282,0.970592,1.93280,0.00519303,9749.62,140.858
"2016-08-01 17:05:00 000",386.259,1.00687,1.93000,0.00568536,9762.66,144.388
"2016-08-01 17:15:00 000",384.787,0.827568,1.92780,0.00466014,9904.23,147.907
"2016-08-01 17:25:00 000",385.466,0.827806,1.92929,0.00436682,9963.87,129.261
"2016-08-01 17:35:00 000",385.883,0.888868,1.92845,0.00507156,10033.2,233.983
"2016-08-01 17:45:00 000",386.682,0.838357,1.93176,0.00455306,10218.9,213.518
"2016-08-01 17:55:00 000",387.377,0.799096,1.92953,0.00397688,10119.0,135.500
"2016-08-01 18:05:00 000",385.477,1.28344,1.93307,0.00460707,10154.2,150.784
"2016-08-01 18:15:00 000",386.447,0.928961,1.93667,0.00584712,10336.1,110.673
"2016-08-01 18:25:00 000",386.932,0.863436,1.93201,0.00451054,10148.9,126.903
"2016-08-01 18:35:00 000",387.430,0.835845,1.93320,0.00526407,10264.2,123.320
"2016-08-01 18:45:00 000",387.564,0.820713,1.93909,0.00516862,10597.9,116.767
"2016-08-01 18:55:00 000",387.141,0.956214,1.94555,0.00500397,10696.0,103.256
"2016-08-01 19:05:00 000",388.168,1.01190,1.95104,0.00640692,10872.6,102.879
"2016-08-01 19:15:00 000",387.545,1.50351,1.96033,0.0107947,11157.4,287.728
"2016-08-01 19:25:00 000",387.427,0.851408,1.96967,0.0146229,11513.6,402.724
"2016-08-01 19:35:00 000",388.841,0.879582,1.98140,0.00454029,11961.6,105.741
"2016-08-01 19:45:00 000",388.065,1.33134,1.97878,0.00473686,11920.4,109.896
"2016-08-01 19:55:00 000",388.085,0.929917,1.97724,0.00512139,11905.7,100.754
"2016-08-01 20:05:00 000",387.584,0.900677,1.97421,0.00527763,11767.5,92.9701
"2016-08-01 20:15:00 000",387.153,0.730070,1.97275,0.00429294,11671.8,90.0417
"2016-08-01 20:25:00 000",387.435,0.803906,1.96603,0.00566367,11720.6,97.3471
"2016-08-01 20:35:00 000",387.210,0.767099,1.96481,0.00493462,11674.9,97.0176
"2016-08-01 20:45:00 000",387.440,0.779486,1.96402,0.00471800,11577.8,94.6308
"2016-08-01 20:55:00 000",388.089,0.775310,1.96040,0.00607954,11527.2,119.138
"2016-08-01 21:05:00 000",388.091,0.721737,1.96655,0.00443952,11599.0,108.022
"2016-08-01 21:15:00 000",387.601,0.960072,1.97307,0.00445637,11682.2,103.346
"2016-08-01 21:25:00 000",387.514,1.08683,1.96927,0.00447928,11652.8,103.780
"2016-08-01 21:35:00 000",388.858,0.770756,1.97118,0.00432117,11718.1,112.032
"2016-08-01 21:45:00 000",388.416,0.824962,1.97089,0.00464577,11658.5,133.773
"2016-08-01 21:55:00 000",389.074,0.919769,1.97173,0.00415354,11813.3,102.687
"2016-08-01 22:05:00 000",388.881,0.873443,1.97014,0.00451949,11630.5,104.074
"2016-08-01 22:15:00 000",388.906,0.865700,1.96430,0.00498345,11542.8,90.8300
"2016-08-01 22:25:00 000",391.799,2.19426,1.97582,0.00919006,11824.9,242.102
"2016-08-01 22:35:00 000",392.577,1.71089,1.97269,0.00813935,11872.5,163.660
"2016-08-01 22:45:00 000",393.960,2.12753,1.97113,0.00553325,12109.4,170.889
"2016-08-01 22:55:00 000",391.465,2.19232,1.96386,0.00651156,12287.8,168.848
"2016-08-01 23:05:00 000",404.713,7.41521,1.98593,0.0113511,12273.4,285.445
"2016-08-01 23:15:00 000",412.171,4.29773,1.99356,0.0118195,12805.8,145.359
"2016-08-01 23:25:00 000",407.677,6.49177,1.98083,0.0102584,12711.5,124.903
"2016-08-01 23:35:00 000",406.934,5.14128,1.98289,0.0121426,12575.1,129.489
"2016-08-01 23:45:00 000",396.435,5.13876,1.96821,0.00672652,12621.0,134.004
"2016-08-01 23:55:00 000",389.753,3.71236,1.96423,0.00708797,12194.8,149.717
"2016-08-02 00:05:00 000",388.772,1.79095,1.96595,0.00674826,11802.8,157.883
"2016-08-02 00:15:00 000",392.330,2.99554,1.96896,0.00995187,11625.4,150.942
"2016-08-02 00:25:00 000",401.796,2.23265,1.99165,0.00700376,11860.5,214.143
"2016-08-02 00:35:00 000",404.183,1.24009,2.00386,0.00716035,12121.0,168.697
"2016-08-02 00:45:00 000",400.367,3.59824,1.99934,0.0114918,12321.4,186.285
"2016-08-02 00:55:00 000",393.343,1.69196,1.97938,0.00946784,12443.6,179.475
"2016-08-02 01:05:00 000",397.846,1.49609,1.99308,0.00683531,12227.0,198.382
"2016-08-02 01:15:00 000",399.184,2.15439,1.99434,0.00863638,12181.5,195.707
"2016-08-02 01:25:00 000",402.269,3.11291,2.00168,0.00844365,12189.6,182.856
"2016-08-02 01:35:00 000",403.505,3.69829,1.99825,0.00831635,12224.7,221.182
"2016-08-02 01:45:00 000",400.603,2.91183,1.99928,0.00825787,12365.8,188.555
"2016-08-02 01:55:00 000",399.379,2.06622,2.00733,0.00706316,12212.8,191.968
"2016-08-02 02:05:00 000",401.131,2.51993,2.00551,0.00906721,12121.9,189.602
"2016-08-02 02:15:00 000",402.372,2.30435,2.00236,0.00796020,12249.9,199.933
"2016-08-02 02:25:00 000",399.709,3.41212,1.99152,0.0110900,12461.7,197.055
"2016-08-02 02:35:00 000",407.153,2.49661,2.01022,0.0117734,12467.1,178.787
"2016-08-02 02:45:00 000",411.513,2.48378,2.03725,0.0173061,12507.2,184.815
"2016-08-02 02:55:00 000",413.741,3.02921,2.02314,0.0250307,12306.3,341.170
"2016-08-02 03:05:00 000",400.172,1.68719,1.97028,0.00661896,12017.8,186.786
"2016-08-02 03:15:00 000",400.140,1.27438,1.98029,0.00864987,12264.0,207.367
"2016-08-02 03:25:00 000",400.512,1.11003,1.98578,0.00632704,12284.2,184.804
"2016-08-02 03:35:00 000",404.012,1.45594,1.99530,0.00691935,12322.9,199.413
"2016-08-02 03:45:00 000",405.879,1.09598,2.01458,0.0149686,12491.2,204.718
"2016-08-02 03:55:00 000",404.647,1.04799,2.03720,0.00735847,12525.3,200.839
"2016-08-02 04:05:00 000",403.764,1.03977,2.01598,0.0121523,12529.3,217.836
"2016-08-02 04:15:00 000",403.597,0.971625,2.00514,0.00867308,12500.8,193.157
"2016-08-02 04:25:00 000",401.908,1.16094,2.00629,0.00615161,12549.8,178.507
"2016-08-02 04:35:00 000",402.437,1.30805,2.01743,0.0105348,12578.0,178.099
"2016-08-02 04:45:00 000",404.751,1.18837,2.07583,0.0218974,12596.7,173.844
"2016-08-02 04:55:00 000",407.656,1.05349,2.07211,0.0244729,12704.0,173.858
"2016-08-02 05:05:00 000",408.770,1.58335,2.04656,0.0189944,12796.1,152.872
"2016-08-02 05:15:00 000",412.722,1.74325,2.05190,0.0140375,12856.2,145.228
"2016-08-02 05:25:00 000",413.635,1.26206,2.04224,0.0166095,12880.6,143.712
"2016-08-02 05:35:00 000",415.350,1.05153,2.03087,0.0113336,12953.2,151.645
"2016-08-02 05:45:00 000",414.026,2.33381,2.01855,0.0167208,13013.5,143.918
"2016-08-02 05:55:00 000",411.991,3.06512,2.00202,0.0235127,13034.4,130.246
"2016-08-02 06:05:00 000",412.409,1.27728,1.98145,0.0110438,13061.6,142.488
"2016-08-02 06:15:00 000",408.586,4.27706,1.96256,0.0196239,13047.1,170.449
"2016-08-02 06:25:00 000",412.792,3.08878,1.96839,0.0209065,13253.9,136.219
"2016-08-02 06:35:00 000",415.043,1.76996,1.97790,0.0210489,13329.5,149.628
"2016-08-02 06:45:00 000",413.395,3.53959,1.95253,0.0204233,13346.0,142.720
"2016-08-02 06:55:00 000",414.803,1.49736,1.96539,0.0154407,13436.9,158.946
"2016-08-02 07:05:00 000",407.302,5.10510,1.93610,0.0141864,13272.0,197.025
"2016-08-02 07:15:00 000",401.000,2.35373,1.92174,0.00647054,13101.0,143.734
"2016-08-02 07:25:00 000",397.872,1.60401,1.92073,0.00581432,13058.4,163.325
"2016-08-02 07:35:00 000",396.419,1.10531,1.91692,0.00511581,12807.5,152.703
"2016-08-02 07:45:00 000",396.975,1.34371,1.91771,0.00513045,12832.6,144.497
"2016-08-02 07:55:00 000",399.281,1.36105,1.93710,0.00733036,12884.3,134.686
"2016-08-02 08:05:00 000",402.923,2.92336,1.95497,0.00765613,12850.9,133.650
"2016-08-02 08:15:00 000",404.532,1.90573,1.95503,0.00803290,12898.4,138.563
"2016-08-02 08:25:00 000",405.249,1.21456,1.96957,0.00944686,13010.2,137.945
"2016-08-02 08:35:00 000",402.569,1.51765,1.97497,0.00922552,13039.6,146.060
"2016-08-02 08:45:00 000",401.225,1.14325,1.97612,0.00741394,13025.4,138.238
"2016-08-02 08:55:00 000",401.135,1.21698,1.97061,0.0133980,13166.6,134.565
"2016-08-02 09:05:00 000",401.323,0.894348,1.97778,0.00914592,13369.1,154.611
"2016-08-02 09:15:00 000",399.867,1.47155,1.94971,0.0111669,13569.3,121.506
"2016-08-02 09:25:00 000",399.470,0.940604,1.93272,0.00734138,13524.0,149.303
"2016-08-02 09:35:00 000",398.980,1.18478,1.93417,0.00690072,13681.2,148.914
"2016-08-02 09:45:00 000",399.952,1.14577,1.93355,0.00616098,13706.2,128.107
"2016-08-02 09:55:00 000",398.659,1.69057,1.93119,0.00565342,13675.4,140.479
"2016-08-02 10:05:00 000",396.647,1.22090,1.93173,0.00475181,13703.8,133.082
"2016-08-02 10:15:00 000",395.230,1.26632,1.93034,0.00517469,13865.0,127.497
"2016-08-02 10:25:00 000",393.893,1.14501,1.92328,0.00584031,13946.1,132.428
"2016-08-02 10:35:00 000",392.810,0.850771,1.91649,0.00487383,14051.1,130.373
"2016-08-02 10:45:00 000",392.082,0.913495,1.90930,0.00526990,14332.9,148.169
"2016-08-02 10:55:00 000",391.242,0.995417,1.89834,0.00773018,14292.4,129.898
"2016-08-02 11:05:00 000",391.166,0.986073,1.89169,0.00564423,14375.4,134.503
"2016-08-02 11:15:00 000",390.853,0.896559,1.88471,0.00537765,14506.5,153.335
"2016-08-02 11:25:00 000",390.986,0.882378,1.87546,0.00565304,14511.9,137.031
"2016-08-02 11:35:00 000",390.906,0.874994,1.86829,0.00494089,14591.0,146.343
"2016-08-02 11:45:00 000",391.147,0.884205,1.86955,0.00487313,14545.2,145.422
"2016-08-02 11:55:00 000",391.041,0.880587,1.87189,0.00477500,14786.1,192.207
"2016-08-02 12:05:00 000",390.788,1.00993,1.87331,0.00538061,15204.1,174.073
"2016-08-02 12:15:00 000",390.438,1.10538,1.87425,0.00513903,15525.1,189.736
"2016-08-02 12:25:00 000",389.993,0.983342,1.87396,0.00498810,15760.1,180.780
"2016-08-02 12:35:00 000",390.473,0.998166,1.87357,0.00527088,15756.9,178.780
"2016-08-02 12:45:00 000",390.889,0.938731,1.87484,0.00520197,15777.0,172.822
"2016-08-02 12:55:00 000",390.664,0.875843,1.87487,0.00514101,15847.8,182.477
"2016-08-02 13:05:00 000",391.186,0.852126,1.87187,0.00555070,15792.3,179.034
"2016-08-02 13:15:00 000",390.815,1.01858,1.86967,0.00558784,15620.4,221.925
"2016-08-02 13:25:00 000",390.889,0.935344,1.87012,0.00544674,15130.2,209.548
"2016-08-02 13:35:00 000",390.035,0.876852,1.86940,0.00524250,15055.1,176.536
"2016-08-02 13:45:00 000",390.002,0.915782,1.86790,0.00518536,15163.6,186.292
"2016-08-02 13:55:00 000",390.182,0.853703,1.86414,0.00550365,15226.3,197.920
"2016-08-02 14:05:00 000",389.331,0.916896,1.85857,0.00567546,15435.4,200.111
"2016-08-02 14:15:00 000",388.454,0.900993,1.85778,0.00532536,15695.3,211.170
"2016-08-02 14:25:00 000",389.118,0.956739,1.85904,0.00562605,15789.8,184.654
"2016-08-02 14:35:00 000",388.801,0.958867,1.86071,0.00580121,15940.4,185.861
"2016-08-02 14:45:00 000",389.181,0.977840,1.85987,0.00588302,15792.4,212.460
"2016-08-02 14:55:00 000",390.154,0.900026,1.86045,0.00568507,15665.0,199.914
"2016-08-02 15:05:00 000",389.930,0.886338,1.86180,0.00606362,15560.3,189.884
"2016-08-02 15:15:00 000",389.679,0.898630,1.86298,0.00567499,15533.3,210.620
"2016-08-02 15:25:00 000",388.578,0.945703,1.86128,0.00570283,15666.4,204.380
"2016-08-02 15:35:00 000",389.578,0.909974,1.86192,0.00561678,15532.3,215.985
"2016-08-02 15:45:00 000",389.398,1.01082,1.86277,0.00577293,15501.3,203.183
"2016-08-02 15:55:00 000",390.227,0.911501,1.86290,0.00566361,15578.5,187.653
"2016-08-02 16:05:00 000",390.399,0.878969,1.86372,0.00539111,15606.0,178.477
"2016-08-02 16:15:00 000",390.201,0.870540,1.86357,0.00570204,15696.7,192.591
"2016-08-02 16:25:00 000",390.451,0.869873,1.86499,0.00568316,15798.3,184.427
"2016-08-02 16:35:00 000",390.533,0.876474,1.86273,0.00544271,15978.5,193.244
"2016-08-02 16:45:00 000",390.533,0.919447,1.86546,0.00608134,15825.6,206.156
"2016-08-02 16:55:00 000",390.904,0.827703,1.86122,0.00601581,15773.7,183.954
"2016-08-02 17:05:00 000",391.129,0.874605,1.85819,0.00525302,15845.4,197.450
"2016-08-02 17:15:00 000",390.911,0.831648,1.85765,0.00547828,15912.3,180.266
"2016-08-02 17:25:00 000",391.783,0.919616,1.85855,0.00539225,15852.9,193.747
"2016-08-02 17:35:00 000",392.163,0.867197,1.86003,0.00573890,15694.4,191.999
"2016-08-02 17:45:00 000",392.825,0.889460,1.86176,0.00490262,15559.2,206.680
"2016-08-02 17:55:00 000",393.624,0.861706,1.86336,0.00581548,15434.7,197.588
"2016-08-02 18:05:00 000",393.461,0.924568,1.86407,0.00572129,15597.6,201.305
"2016-08-02 18:15:00 000",392.852,0.864717,1.86319,0.00586462,15764.5,196.368
"2016-08-02 18:25:00 000",393.047,0.933127,1.86164,0.00556591,15733.6,209.660
"2016-08-02 18:35:00 000",393.989,0.915385,1.86483,0.00563947,15417.9,211.922
"2016-08-02 18:45:00 000",393.916,0.999392,1.86543,0.00568392,15384.0,212.429
"2016-08-02 18:55:00 000",393.972,0.951344,1.86968,0.00583428,15486.7,207.945
"2016-08-02 19:05:00 000",394.122,0.909181,1.87135,0.00566780,15556.6,188.605
"2016-08-02 19:15:00 000",395.213,0.929534,1.86974,0.00611891,15594.3,207.515
"2016-08-02 19:25:00 000",395.221,0.985044,1.86570,0.00604100,15632.7,206.966
"2016-08-02 19:35:00 000",394.824,0.886185,1.86299,0.00581789,15763.5,194.335
"2016-08-02 19:45:00 000",395.066,0.886720,1.86224,0.00570851,15715.5,207.760
"2016-08-02 19:55:00 000",394.807,0.860223,1.85825,0.00588402,15833.8,203.161
"2016-08-02 20:05:00 000",395.228,0.975179,1.85550,0.00583540,15869.5,200.470
"2016-08-02 20:15:00 000",394.938,0.946348,1.85496,0.00594003,15689.3,203.938
"2016-08-02 20:25:00 000",394.829,0.865466,1.85247,0.00578501,15770.0,198.222
"2016-08-02 20:35:00 000",394.779,0.871767,1.85640,0.00587038,15656.2,196.296
"2016-08-02 20:45:00 000",394.995,0.894697,1.85784,0.00531764,15746.6,205.980
"2016-08-02 20:55:00 000",394.968,0.907108,1.85881,0.00572277,15772.0,189.756
"2016-08-02 21:05:00 000",394.543,0.853123,1.85866,0.00565523,15767.3,200.201
"2016-08-02 21:15:00 000",394.613,0.886357,1.85741,0.00586856,15770.4,197.762
"2016-08-02 21:25:00 000",394.545,0.929760,1.85646,0.00552804,15800.8,204.201
"2016-08-02 21:35:00 000",393.811,0.926279,1.85588,0.00565643,16000.4,214.658
"2016-08-02 21:45:00 000",393.576,0.845929,1.85375,0.00555550,16062.2,198.271
"2016-08-02 21:55:00 000",393.736,0.946929,1.85465,0.00584319,16031.7,200.759
"2016-08-02 22:05:00 000",394.178,0.945144,1.85476,0.00600798,16163.4,208.290
"2016-08-02 22:15:00 000",394.245,0.957265,1.85496,0.00586314,16125.6,208.616
"2016-08-02 22:25:00 000",394.334,0.875178,1.85384,0.00574430,16056.1,201.913
"2016-08-02 22:35:00 000",394.427,0.884472,1.85513,0.00553951,15939.5,198.129
"2016-08-02 22:45:00 000",394.996,0.904553,1.85548,0.00573809,15885.0,184.730
"2016-08-02 22:55:00 000",394.889,0.887131,1.85418,0.00573962,15924.3,193.792
"2016-08-02 23:05:00 000",394.378,0.901104,1.85188,0.00580021,16081.7,200.555
"2016-08-02 23:15:00 000",394.508,0.904644,1.85339,0.00588702,16225.1,190.449
"2016-08-02 23:25:00 000",395.026,0.876646,1.85440,0.00618034,16381.5,200.785
"2016-08-02 23:35:00 000",394.873,0.893436,1.85436,0.00583314,16386.6,210.202
"2016-08-02 23:45:00 000",394.608,0.875168,1.85297,0.00571832,16356.8,220.904
"2016-08-02 23:55:00 000",394.955,0.933241,1.85317,0.00570707,16278.2,200.871
"2016-08-03 00:05:00 000",394.501,0.930279,1.85319,0.00592197,16244.4,202.669
"2016-08-03 00:15:00 000",393.760,0.879983,1.85345,0.00580828,16135.5,193.330
"2016-08-03 00:25:00 000",393.668,0.914540,1.85109,0.00574923,16138.1,201.204
"2016-08-03 00:35:00 000",394.073,0.845434,1.85266,0.00562736,16056.7,196.780
"2016-08-03 00:45:00 000",394.550,0.890795,1.85247,0.00557802,15979.7,193.032
"2016-08-03 00:55:00 000",394.567,0.865011,1.85307,0.00557962,16070.1,196.229
"2016-08-03 01:05:00 000",394.898,0.917971,1.85425,0.00562396,16217.8,204.594
"2016-08-03 01:15:00 000",395.235,0.937350,1.85593,0.00535268,16221.1,204.904
"2016-08-03 01:25:00 000",395.342,0.888324,1.85607,0.00573395,16215.5,199.263
"2016-08-03 01:35:00 000",395.328,0.987687,1.85557,0.00577008,16207.4,199.968
"2016-08-03 01:45:00 000",395.517,0.861127,1.85635,0.00560722,16106.2,193.717
"2016-08-03 01:55:00 000",395.457,0.914635,1.85547,0.00535348,16131.3,202.841
"2016-08-03 02:05:00 000",395.570,0.850812,1.85544,0.00549353,16046.4,198.789